Regional Weather Roundup
Issued by NWS

Home | Current Version | Previous Version | Text Only | Print | Product List | Glossary Off
Versions: 1 2 3 4 5 6 7 8 9 10 11 12 13 14 15 16 17 18 19 20 21 22 23 24 25 26 27 28 29 30 31 32 33 34 35 36 37 38 39 40 41 42 43 44 45 46 47 48 49 50

000
ASUS43 KFSD 301510
RWRSD

WEATHER ROUNDUP FOR SOUTH DAKOTA
NATIONAL WEATHER SERVICE SIOUX FALLS SD
1000 AM CDT SAT APR 30 2016

NOTE: "FAIR" INDICATES FEW OR NO CLOUDS BELOW 12,000 FEET WITH NO
SIGNIFICANT WEATHER AND/OR OBSTRUCTIONS TO VISIBILITY.


SDZ001>005-009-010-012>017-301600-
NORTHWEST AND NORTH CENTRAL SOUTH DAKOTA

CITY           SKY/WX    TMP DP  RH WIND       PRES   REMARKS
BUFFALO          N/A     46  36  68 NE16      30.07R
FAITH            N/A     48  39  71 NE17      30.10R
MOBRIDGE       MOSUNNY   51  39  63 E15       30.10S
$$

SDZ012>016-024>037-041>051-057-063-072>074-301600-
SOUTHWEST AND SOUTH CENTRAL SOUTH DAKOTA

CITY           SKY/WX    TMP DP  RH WIND       PRES   REMARKS
RAPID CTY ARPT CLOUDY    41  37  86 N15       30.08R
PIERRE         CLOUDY    46  38  73 NE17G24   30.04R
CUSTER         FLURRIES  32  29  88 NE14G26   30.01R WCI  22
ELLSWORTH AFB  CLOUDY    42  40  95 N12       30.08R
PHILIP         CLOUDY    45  38  76 NE18G26   30.05S
PINE RIDGE     LGT RAIN  39  35  86 NE20G26   29.99R FOG
WINNER         CLOUDY    44  38  79 NE16G23   29.96S
$$

SDZ004>011-016>023-039-040-301600-
NORTHEAST SOUTH DAKOTA

CITY           SKY/WX    TMP DP  RH WIND       PRES   REMARKS
ABERDEEN       CLOUDY    50  35  56 NE21      30.10S
WATERTOWN      CLOUDY    43  33  68 NE20G29   30.03R
BROOKINGS      CLOUDY    41  34  76 NE16G23   29.97F
SISSETON         N/A     49  33  54 E24       30.10S
$$

SDZ017-020-022-023-036>040-048>070-301600-
SOUTHEAST SOUTH DAKOTA

CITY           SKY/WX    TMP DP  RH WIND       PRES   REMARKS
SIOUX FALLS    LGT RAIN  43  38  82 NE20G26   29.94R
HURON          CLOUDY    45  36  70 NE20G25   30.01F
CHAMBERLAIN    CLOUDY    46  41  84 NE12G17   29.98S
MITCHELL       CLOUDY    46  41  82 NE15      29.97F
YANKTON        CLOUDY    43  39  87 NE15G24   29.87F
$$

ABBREVIATIONS USED IN REMARKS
   TC - TEMPERATURE IN CELSIUS
  WCI - WIND CHILL INDEX
   HX - HEAT INDEX
  VSB - VISIBILITY





USA.gov is the U.S. government's official web portal to all federal, state and local government web resources and services.